Time,TemperatureF,DewpointF,PressureIn,WindDirection,WindDirectionDegrees,WindSpeedMPH,WindSpeedGustMPH,Humidity,HourlyPrecipIn,Conditions,Clouds,dailyrainin,SoftwareType,DateUTC
2013-01-01 00:02:00,0.0,-4.0,29.95,North,-999,-999.0,-999.0,82,-99.99,,,-99.99,,2013-01-01 07:02:00,
2013-01-01 00:12:00,-8.0,-13.0,29.97,North,-999,-999.0,-999.0,78,-99.99,,,-99.99,,2013-01-01 07:12:00,
2013-01-01 00:22:00,-8.0,-13.0,29.97,North,-999,-999.0,-999.0,78,-99.99,,,-99.99,,2013-01-01 07:22:00,
2013-01-01 00:32:00,-8.0,-13.0,29.97,North,-999,-999.0,-999.0,78,-99.99,,,-99.99,,2013-01-01 07:32:00,
2013-01-01 00:42:00,-9.0,-14.0,29.97,North,-999,-999.0,-999.0,79,-99.99,,,-99.99,,2013-01-01 07:42:00,
2013-01-01 00:52:00,-9.0,-14.0,29.97,North,-999,-999.0,-999.0,79,-99.99,,,-99.99,,2013-01-01 07:52:00,
2013-01-01 01:02:00,-9.0,-14.0,29.97,North,-999,-999.0,-999.0,79,-99.99,,,-99.99,,2013-01-01 08:02:00,
2013-01-01 01:12:00,-8.0,-13.0,29.98,North,-999,-999.0,-999.0,78,-99.99,,,-99.99,,2013-01-01 08:12:00,
2013-01-01 01:22:00,-8.0,-13.0,29.98,North,-999,-999.0,-999.0,78,-99.99,,,-99.99,,2013-01-01 08:22:00,
2013-01-01 01:32:00,-8.0,-13.0,29.98,North,-999,-999.0,-999.0,78,-99.99,,,-99.99,,2013-01-01 08:32:00,
2013-01-01 01:42:00,-5.0,-9.0,29.98,North,-999,-999.0,-999.0,80,-99.99,,,-99.99,,2013-01-01 08:42:00,
2013-01-01 01:53:00,-5.0,-9.0,29.98,North,-999,-999.0,-999.0,80,-99.99,,,-99.99,,2013-01-01 08:53:00,
2013-01-01 02:02:00,-5.0,-9.0,29.98,North,-999,-999.0,-999.0,80,-99.99,,,-99.99,,2013-01-01 09:02:00,
2013-01-01 02:12:00,-4.0,-10.0,29.99,North,-999,-999.0,-999.0,75,-99.99,,,-99.99,,2013-01-01 09:12:00,
2013-01-01 02:22:00,-4.0,-10.0,29.99,North,-999,-999.0,-999.0,75,-99.99,,,-99.99,,2013-01-01 09:22:00,
2013-01-01 02:32:00,-4.0,-10.0,29.99,North,-999,-999.0,-999.0,75,-99.99,,,-99.99,,2013-01-01 09:32:00,
2013-01-01 02:42:00,-4.0,-10.0,29.99,North,-999,-999.0,-999.0,75,-99.99,,,-99.99,,2013-01-01 09:42:00,
2013-01-01 02:52:00,-7.0,-12.0,29.99,North,-999,-999.0,-999.0,78,-99.99,,,-99.99,,2013-01-01 09:52:00,
2013-01-01 03:02:00,-7.0,-12.0,29.99,North,-999,-999.0,-999.0,78,-99.99,,,-99.99,,2013-01-01 10:02:00,
2013-01-01 03:12:00,-5.0,-10.0,29.99,North,-999,-999.0,-999.0,79,-99.99,,,-99.99,,2013-01-01 10:12:00,
2013-01-01 03:22:00,-5.0,-10.0,29.99,North,-999,-999.0,-999.0,79,-99.99,,,-99.99,,2013-01-01 10:22:00,
2013-01-01 03:32:00,-5.0,-10.0,29.99,North,-999,-999.0,-999.0,79,-99.99,,,-99.99,,2013-01-01 10:32:00,
2013-01-01 03:43:00,-4.0,-8.0,30.00,North,-999,-999.0,-999.0,79,-99.99,,,-99.99,,2013-01-01 10:43:00,
2013-01-01 03:53:00,-4.0,-8.0,30.00,North,-999,-999.0,-999.0,79,-99.99,,,-99.99,,2013-01-01 10:53:00,
2013-01-01 04:02:00,-4.0,-8.0,30.00,North,-999,-999.0,-999.0,79,-99.99,,,-99.99,,2013-01-01 11:02:00,
2013-01-01 04:12:00,-4.0,-9.0,30.00,North,-999,-999.0,-999.0,78,-99.99,,,-99.99,,2013-01-01 11:12:00,
2013-01-01 04:22:00,-4.0,-9.0,30.00,North,-999,-999.0,-999.0,78,-99.99,,,-99.99,,2013-01-01 11:22:00,
2013-01-01 04:32:00,-4.0,-9.0,30.00,North,-999,-999.0,-999.0,78,-99.99,,,-99.99,,2013-01-01 11:32:00,
2013-01-01 04:43:00,-5.0,-9.0,30.00,North,-999,-999.0,-999.0,79,-99.99,,,-99.99,,2013-01-01 11:43:00,
2013-01-01 04:53:00,-5.0,-9.0,30.00,North,-999,-999.0,-999.0,79,-99.99,,,-99.99,,2013-01-01 11:53:00,
2013-01-01 05:02:00,-5.0,-9.0,30.00,North,-999,-999.0,-999.0,79,-99.99,,,-99.99,,2013-01-01 12:02:00,
2013-01-01 05:12:00,-3.0,-7.0,30.01,North,-999,-999.0,-999.0,83,-99.99,,,-99.99,,2013-01-01 12:12:00,
2013-01-01 05:22:00,-3.0,-7.0,30.01,North,-999,-999.0,-999.0,83,-99.99,,,-99.99,,2013-01-01 12:22:00,
2013-01-01 05:32:00,-3.0,-7.0,30.01,North,-999,-999.0,-999.0,83,-99.99,,,-99.99,,2013-01-01 12:32:00,
2013-01-01 05:43:00,-3.0,-7.0,30.01,North,-999,-999.0,-999.0,83,-99.99,,,-99.99,,2013-01-01 12:43:00,
2013-01-01 05:53:00,0.0,-3.0,30.01,North,-999,-999.0,-999.0,83,-99.99,,,-99.99,,2013-01-01 12:53:00,
2013-01-01 06:02:00,0.0,-3.0,30.01,North,-999,-999.0,-999.0,83,-99.99,,,-99.99,,2013-01-01 13:02:00,
2013-01-01 06:12:00,0.0,-4.0,30.02,North,-999,-999.0,-999.0,81,-99.99,,,-99.99,,2013-01-01 13:12:00,
2013-01-01 06:22:00,0.0,-4.0,30.02,North,-999,-999.0,-999.0,81,-99.99,,,-99.99,,2013-01-01 13:22:00,
2013-01-01 06:32:00,0.0,-4.0,30.02,North,-999,-999.0,-999.0,81,-99.99,,,-99.99,,2013-01-01 13:32:00,
2013-01-01 06:43:00,0.0,-4.0,30.02,North,-999,-999.0,-999.0,81,-99.99,,,-99.99,,2013-01-01 13:43:00,
2013-01-01 06:53:00,1.0,-3.0,30.04,North,-999,-999.0,-999.0,82,-99.99,,,-99.99,,2013-01-01 13:53:00,
2013-01-01 07:02:00,1.0,-3.0,30.04,North,-999,-999.0,-999.0,82,-99.99,,,-99.99,,2013-01-01 14:02:00,
2013-01-01 07:12:00,0.0,-5.0,30.05,North,-999,-999.0,-999.0,81,-99.99,,,-99.99,,2013-01-01 14:12:00,
2013-01-01 07:22:00,0.0,-5.0,30.05,North,-999,-999.0,-999.0,81,-99.99,,,-99.99,,2013-01-01 14:22:00,
2013-01-01 07:32:00,0.0,-5.0,30.05,North,-999,-999.0,-999.0,81,-99.99,,,-99.99,,2013-01-01 14:32:00,
2013-01-01 07:43:00,-3.0,-7.0,30.06,North,-999,-999.0,-999.0,80,-99.99,,,-99.99,,2013-01-01 14:43:00,
2013-01-01 07:53:00,-3.0,-7.0,30.06,North,-999,-999.0,-999.0,80,-99.99,,,-99.99,,2013-01-01 14:53:00,
2013-01-01 08:02:00,-3.0,-7.0,30.06,North,-999,-999.0,-999.0,80,-99.99,,,-99.99,,2013-01-01 15:02:00,
2013-01-01 08:12:00,-2.0,-6.0,30.06,North,-999,-999.0,-999.0,81,-99.99,,,-99.99,,2013-01-01 15:12:00,
2013-01-01 08:22:00,-2.0,-6.0,30.06,North,-999,-999.0,-999.0,81,-99.99,,,-99.99,,2013-01-01 15:22:00,
2013-01-01 08:33:00,-2.0,-6.0,30.06,North,-999,-999.0,-999.0,81,-99.99,,,-99.99,,2013-01-01 15:33:00,
2013-01-01 08:43:00,2.0,-3.0,30.07,North,-999,-999.0,-999.0,80,-99.99,,,-99.99,,2013-01-01 15:43:00,
2013-01-01 08:53:00,2.0,-3.0,30.07,North,-999,-999.0,-999.0,80,-99.99,,,-99.99,,2013-01-01 15:53:00,
2013-01-01 09:02:00,2.0,-3.0,30.07,North,-999,-999.0,-999.0,80,-99.99,,,-99.99,,2013-01-01 16:02:00,
2013-01-01 09:12:00,-4.0,-9.0,30.08,North,-999,-999.0,-999.0,76,-99.99,,,-99.99,,2013-01-01 16:12:00,
2013-01-01 09:22:00,-4.0,-9.0,30.08,North,-999,-999.0,-999.0,76,-99.99,,,-99.99,,2013-01-01 16:22:00,
2013-01-01 09:32:00,-4.0,-9.0,30.08,North,-999,-999.0,-999.0,76,-99.99,,,-99.99,,2013-01-01 16:32:00,
2013-01-01 09:43:00,-2.0,-7.0,30.08,North,-999,-999.0,-999.0,78,-99.99,,,-99.99,,2013-01-01 16:43:00,
2013-01-01 09:53:00,-2.0,-7.0,30.08,North,-999,-999.0,-999.0,78,-99.99,,,-99.99,,2013-01-01 16:53:00,
2013-01-01 10:02:00,-2.0,-7.0,30.08,North,-999,-999.0,-999.0,78,-99.99,,,-99.99,,2013-01-01 17:02:00,
2013-01-01 10:12:00,3.0,-2.0,30.09,North,-999,-999.0,-999.0,82,-99.99,,,-99.99,,2013-01-01 17:12:00,
2013-01-01 10:22:00,3.0,-2.0,30.09,North,-999,-999.0,-999.0,82,-99.99,,,-99.99,,2013-01-01 17:22:00,
2013-01-01 10:33:00,3.0,-2.0,30.09,North,-999,-999.0,-999.0,82,-99.99,,,-99.99,,2013-01-01 17:33:00,
2013-01-01 10:43:00,3.0,-2.0,30.09,North,-999,-999.0,-999.0,82,-99.99,,,-99.99,,2013-01-01 17:43:00,
2013-01-01 10:53:00,9.0,6.0,30.09,North,-999,-999.0,-999.0,85,-99.99,,,-99.99,,2013-01-01 17:53:00,
2013-01-01 11:03:00,9.0,6.0,30.09,North,-999,-999.0,-999.0,85,-99.99,,,-99.99,,2013-01-01 18:03:00,
2013-01-01 11:12:00,7.0,3.0,30.08,North,-999,-999.0,-999.0,82,-99.99,,,-99.99,,2013-01-01 18:12:00,
2013-01-01 11:22:00,7.0,3.0,30.08,North,-999,-999.0,-999.0,82,-99.99,,,-99.99,,2013-01-01 18:22:00,
2013-01-01 11:33:00,7.0,3.0,30.08,North,-999,-999.0,-999.0,82,-99.99,,,-99.99,,2013-01-01 18:33:00,
2013-01-01 11:43:00,7.0,3.0,30.07,North,-999,-999.0,-999.0,82,-99.99,,,-99.99,,2013-01-01 18:43:00,
2013-01-01 11:53:00,7.0,3.0,30.07,North,-999,-999.0,-999.0,82,-99.99,,,-99.99,,2013-01-01 18:53:00,
2013-01-01 12:02:00,7.0,3.0,30.07,North,-999,-999.0,-999.0,82,-99.99,,,-99.99,,2013-01-01 19:02:00,
2013-01-01 12:12:00,8.0,5.0,30.06,North,-999,-999.0,-999.0,84,-99.99,,,-99.99,,2013-01-01 19:12:00,
2013-01-01 12:22:00,8.0,5.0,30.06,North,-999,-999.0,-999.0,84,-99.99,,,-99.99,,2013-01-01 19:22:00,
2013-01-01 12:32:00,8.0,5.0,30.06,North,-999,-999.0,-999.0,84,-99.99,,,-99.99,,2013-01-01 19:32:00,
2013-01-01 12:43:00,8.0,5.0,30.06,North,-999,-999.0,-999.0,84,-99.99,,,-99.99,,2013-01-01 19:43:00,
2013-01-01 12:52:00,11.0,7.0,30.05,North,-999,-999.0,-999.0,83,-99.99,,,-99.99,,2013-01-01 19:52:00,
2013-01-01 13:02:00,11.0,7.0,30.05,North,-999,-999.0,-999.0,83,-99.99,,,-99.99,,2013-01-01 20:02:00,
2013-01-01 13:12:00,11.0,6.0,30.04,North,-999,-999.0,-999.0,80,-99.99,,,-99.99,,2013-01-01 20:12:00,
2013-01-01 13:23:00,11.0,6.0,30.04,North,-999,-999.0,-999.0,80,-99.99,,,-99.99,,2013-01-01 20:23:00,
2013-01-01 13:32:00,11.0,6.0,30.04,North,-999,-999.0,-999.0,80,-99.99,,,-99.99,,2013-01-01 20:32:00,
2013-01-01 13:42:00,13.0,7.0,30.03,North,-999,-999.0,-999.0,75,-99.99,,,-99.99,,2013-01-01 20:42:00,
2013-01-01 13:52:00,13.0,7.0,30.03,North,-999,-999.0,-999.0,75,-99.99,,,-99.99,,2013-01-01 20:52:00,
2013-01-01 14:03:00,13.0,7.0,30.03,North,-999,-999.0,-999.0,75,-99.99,,,-99.99,,2013-01-01 21:03:00,
2013-01-01 14:12:00,12.0,4.0,30.02,North,-999,-999.0,-999.0,69,-99.99,,,-99.99,,2013-01-01 21:12:00,
2013-01-01 14:22:00,12.0,4.0,30.02,North,-999,-999.0,-999.0,69,-99.99,,,-99.99,,2013-01-01 21:22:00,
2013-01-01 14:32:00,12.0,4.0,30.02,North,-999,-999.0,-999.0,69,-99.99,,,-99.99,,2013-01-01 21:32:00,
2013-01-01 14:42:00,12.0,4.0,30.02,North,-999,-999.0,-999.0,69,-99.99,,,-99.99,,2013-01-01 21:42:00,
2013-01-01 14:53:00,13.0,4.0,30.02,North,-999,-999.0,-999.0,63,-99.99,,,-99.99,,2013-01-01 21:53:00,
2013-01-01 15:02:00,13.0,4.0,30.02,North,-999,-999.0,-999.0,63,-99.99,,,-99.99,,2013-01-01 22:02:00,
2013-01-01 15:12:00,14.0,3.0,30.02,North,-999,-999.0,-999.0,59,-99.99,,,-99.99,,2013-01-01 22:12:00,
2013-01-01 15:22:00,14.0,3.0,30.02,North,-999,-999.0,-999.0,59,-99.99,,,-99.99,,2013-01-01 22:22:00,
2013-01-01 15:32:00,14.0,3.0,30.02,North,-999,-999.0,-999.0,59,-99.99,,,-99.99,,2013-01-01 22:32:00,
2013-01-01 15:43:00,13.0,2.0,30.02,North,-999,-999.0,-999.0,61,-99.99,,,-99.99,,2013-01-01 22:43:00,
2013-01-01 15:52:00,13.0,2.0,30.02,North,-999,-999.0,-999.0,61,-99.99,,,-99.99,,2013-01-01 22:52:00,
2013-01-01 16:02:00,13.0,2.0,30.02,North,-999,-999.0,-999.0,61,-99.99,,,-99.99,,2013-01-01 23:02:00,
2013-01-01 16:12:00,13.0,2.0,30.02,North,-999,-999.0,-999.0,61,-99.99,,,-99.99,,2013-01-01 23:12:00,
2013-01-01 16:22:00,12.0,2.0,30.02,North,-999,-999.0,-999.0,64,-99.99,,,-99.99,,2013-01-01 23:22:00,
2013-01-01 16:30:00,10.0,2.0,30.02,North,-999,-999.0,-999.0,67,-99.99,,,-99.99,,2013-01-01 23:30:00,
2013-01-01 16:32:00,12.0,2.0,30.02,North,-999,-999.0,-999.0,64,-99.99,,,-99.99,,2013-01-01 23:32:00,
2013-01-01 16:42:00,12.0,2.0,30.02,North,-999,-999.0,-999.0,64,-99.99,,,-99.99,,2013-01-01 23:42:00,
2013-01-01 16:53:00,10.0,2.0,30.02,North,-999,-999.0,-999.0,67,-99.99,,,-99.99,,2013-01-01 23:53:00,
2013-01-01 17:02:00,10.0,2.0,30.02,North,-999,-999.0,-999.0,67,-99.99,,,-99.99,,2013-01-02 00:02:00,
2013-01-01 17:12:00,10.0,2.0,30.02,North,-999,-999.0,-999.0,67,-99.99,,,-99.99,,2013-01-02 00:12:00,
2013-01-01 17:22:00,10.0,2.0,30.02,North,-999,-999.0,-999.0,67,-99.99,,,-99.99,,2013-01-02 00:22:00,
2013-01-01 17:43:00,7.0,0.0,30.03,North,-999,-999.0,-999.0,72,-99.99,,,-99.99,,2013-01-02 00:43:00,
2013-01-01 17:53:00,7.0,0.0,30.03,North,-999,-999.0,-999.0,72,-99.99,,,-99.99,,2013-01-02 00:53:00,
2013-01-01 18:02:00,7.0,0.0,30.03,North,-999,-999.0,-999.0,72,-99.99,,,-99.99,,2013-01-02 01:02:00,
2013-01-01 18:12:00,7.0,0.0,30.06,North,-999,-999.0,-999.0,74,-99.99,,,-99.99,,2013-01-02 01:12:00,
2013-01-01 18:22:00,7.0,0.0,30.06,North,-999,-999.0,-999.0,74,-99.99,,,-99.99,,2013-01-02 01:22:00,
2013-01-01 18:32:00,7.0,0.0,30.06,North,-999,-999.0,-999.0,74,-99.99,,,-99.99,,2013-01-02 01:32:00,
2013-01-01 18:42:00,5.0,0.0,30.06,North,-999,-999.0,-999.0,80,-99.99,,,-99.99,,2013-01-02 01:42:00,
2013-01-01 18:52:00,5.0,0.0,30.06,North,-999,-999.0,-999.0,80,-99.99,,,-99.99,,2013-01-02 01:52:00,
2013-01-01 19:02:00,5.0,0.0,30.06,North,-999,-999.0,-999.0,80,-99.99,,,-99.99,,2013-01-02 02:02:00,
2013-01-01 19:12:00,4.0,-1.0,30.06,North,-999,-999.0,-999.0,80,-99.99,,,-99.99,,2013-01-02 02:12:00,
2013-01-01 19:22:00,4.0,-1.0,30.06,North,-999,-999.0,-999.0,80,-99.99,,,-99.99,,2013-01-02 02:22:00,
2013-01-01 19:32:00,4.0,-1.0,30.06,North,-999,-999.0,-999.0,80,-99.99,,,-99.99,,2013-01-02 02:32:00,
2013-01-01 19:42:00,5.0,0.0,30.06,North,-999,-999.0,-999.0,80,-99.99,,,-99.99,,2013-01-02 02:42:00,
2013-01-01 19:53:00,5.0,0.0,30.06,North,-999,-999.0,-999.0,80,-99.99,,,-99.99,,2013-01-02 02:53:00,
2013-01-01 20:02:00,5.0,0.0,30.06,North,-999,-999.0,-999.0,80,-99.99,,,-99.99,,2013-01-02 03:02:00,
2013-01-01 20:12:00,5.0,0.0,30.06,North,-999,-999.0,-999.0,80,-99.99,,,-99.99,,2013-01-02 03:12:00,
2013-01-01 20:22:00,3.0,-2.0,30.07,North,-999,-999.0,-999.0,77,-99.99,,,-99.99,,2013-01-02 03:22:00,
2013-01-01 20:32:00,3.0,-2.0,30.07,North,-999,-999.0,-999.0,77,-99.99,,,-99.99,,2013-01-02 03:32:00,
2013-01-01 20:42:00,3.0,-2.0,30.07,North,-999,-999.0,-999.0,77,-99.99,,,-99.99,,2013-01-02 03:42:00,
2013-01-01 20:53:00,5.0,-1.0,30.07,North,-999,-999.0,-999.0,74,-99.99,,,-99.99,,2013-01-02 03:53:00,
2013-01-01 21:02:00,5.0,-1.0,30.07,North,-999,-999.0,-999.0,74,-99.99,,,-99.99,,2013-01-02 04:02:00,
2013-01-01 21:12:00,6.0,0.0,30.07,North,-999,-999.0,-999.0,75,-99.99,,,-99.99,,2013-01-02 04:12:00,
2013-01-01 21:22:00,6.0,0.0,30.07,North,-999,-999.0,-999.0,75,-99.99,,,-99.99,,2013-01-02 04:22:00,
2013-01-01 21:32:00,6.0,0.0,30.07,North,-999,-999.0,-999.0,75,-99.99,,,-99.99,,2013-01-02 04:32:00,
2013-01-01 21:42:00,8.0,2.0,30.08,North,-999,-999.0,-999.0,78,-99.99,,,-99.99,,2013-01-02 04:42:00,
2013-01-01 21:52:00,8.0,2.0,30.08,North,-999,-999.0,-999.0,78,-99.99,,,-99.99,,2013-01-02 04:52:00,
2013-01-01 22:03:00,8.0,2.0,30.08,North,-999,-999.0,-999.0,78,-99.99,,,-99.99,,2013-01-02 05:03:00,
2013-01-01 22:12:00,8.0,2.0,30.08,North,-999,-999.0,-999.0,78,-99.99,,,-99.99,,2013-01-02 05:12:00,
2013-01-01 22:22:00,7.0,2.0,30.08,North,-999,-999.0,-999.0,77,-99.99,,,-99.99,,2013-01-02 05:22:00,
2013-01-01 22:33:00,7.0,2.0,30.08,North,-999,-999.0,-999.0,77,-99.99,,,-99.99,,2013-01-02 05:33:00,
2013-01-01 22:43:00,6.0,1.0,30.09,North,-999,-999.0,-999.0,79,-99.99,,,-99.99,,2013-01-02 05:43:00,
2013-01-01 22:53:00,6.0,1.0,30.09,North,-999,-999.0,-999.0,79,-99.99,,,-99.99,,2013-01-02 05:53:00,
2013-01-01 23:02:00,6.0,1.0,30.09,North,-999,-999.0,-999.0,79,-99.99,,,-99.99,,2013-01-02 06:02:00,
2013-01-01 23:12:00,6.0,1.0,30.09,North,-999,-999.0,-999.0,79,-99.99,,,-99.99,,2013-01-02 06:12:00,
2013-01-01 23:22:00,8.0,2.0,30.09,North,-999,-999.0,-999.0,77,-99.99,,,-99.99,,2013-01-02 06:22:00,
2013-01-01 23:32:00,8.0,2.0,30.09,North,-999,-999.0,-999.0,77,-99.99,,,-99.99,,2013-01-02 06:32:00,
2013-01-01 23:42:00,10.0,4.0,30.10,North,-999,-999.0,-999.0,76,-99.99,,,-99.99,,2013-01-02 06:42:00,
2013-01-01 23:53:00,10.0,4.0,30.10,North,-999,-999.0,-999.0,76,-99.99,,,-99.99,,2013-01-02 06:53:00,